Tracking 19286 objects as of 18-Nov-2018
HD Live streaming from Space Station
objects crossing your sky now

INTELSAT 2 (PAS 2)

Track INTELSAT 2 (PAS 2) now!
INTELSAT 2 (PAS 2) is classified as:


NORAD ID: 23175
Int'l Code: 1994-040A
Perigee: 36,081.6 km
Apogee: 36,117.2 km
Inclination: 7.6 °
Period: 1,451.7 minutes
Semi major axis: 42470 km
RCS: 6.3096 m2 (large)
Launch date: July 8, 1994
Source: United States (US)
Launch site: FRENCH GUIANA (FRGUI)

12 Ku-band; Asia-Pacific.
aabbcc
Your satellite tracking list
Your tracking list is empty




NASA's NSSDC Master Catalog

Two Line Element Set (TLE):
1 23175U 94040A   18322.36755876  .00000085  00000-0  00000+0 0  9990
2 23175   7.5689  52.8114 0004193 270.3918  98.1287  0.99191136 88238
Source of the keplerian elements: AFSPC